Anderson, SC

2:26 AM EDT on May 27, 2018 (GMT -0400)
Anderson Regional

Weather History for KAND - October, 2011

Change the Weather History Date:

Wednesday, October 12, 2011

  Actual Average Record
Temperature  
Mean Temperature 66 °F -  
Max Temperature 73 °F 75 °F 88 °F (2017)
Min Temperature 59 °F 51 °F 36 °F (2000)
Cooling Degree Days 1    
Growing Degree Days 16 (Base 50)    
Moisture  
Dew Point 59 °F    
Average Humidity 85    
Maximum Humidity 94    
Minimum Humidity 70    
Precipitation  
Precipitation 0.01 in - - ()
Sea Level Pressure  
Sea Level Pressure 29.83 in    
Wind  
Wind Speed 4 mph (ENE)    
Max Wind Speed 7 mph    
Max Gust Speed -    
Visibility 10 miles    
Events Rain    
Averages and records for this station are not official NWS values.
T = Trace of Precipitation, MM = Missing Value Source: NWS Daily Summary

Daily Weather History Graph

Daily Weather History Graph

Search for Another Location

Airport or City:

Astronomy

Oct. 12, 2011 Rise Set
Actual Time 7:33 AM EDT 7:00 PM EDT
Civil Twilight 7:08 AM EDT 7:25 PM EDT
Nautical Twilight 6:39 AM EDT 7:54 PM EDT
Astronomical Twilight 6:10 AM EDT 8:23 PM EDT
Moon 7:06 PM EDT (10/12) 8:03 AM EDT (10/12)
Length of Visible Light 12h 17m
Length of Day
11h 26m
Full, 100% of the Moon is Illuminated
Oct 12
Full
Oct 19
Last Quarter
Oct 26
New
Nov 2
First Quarter
Nov 10
Full

Hourly Weather History & Observations

Time (EDT) Temp. Dew Point Humidity Pressure Visibility Wind Dir Wind Speed Gust Speed Precip Events Conditions
12:03 AM 59.0 °F 55.4 °F 88% 29.93 in 10.0 mi NNE 4.6 mph - 0.00 in Rain Light Rain
12:56 AM 59.0 °F 55.9 °F 90% 29.89 in 10.0 mi North 5.8 mph - 0.00 in   Overcast
1:56 AM 59.0 °F 55.9 °F 90% 29.89 in 10.0 mi NNE 3.5 mph - N/A   Overcast
2:56 AM 59.0 °F 55.9 °F 90% 29.86 in 10.0 mi NE 6.9 mph - N/A   Overcast
3:25 AM 59.0 °F 55.4 °F 88% 29.87 in 10.0 mi NE 5.8 mph - N/A   Overcast
3:56 AM 59.0 °F 55.9 °F 90% 29.86 in 10.0 mi NNE 4.6 mph - N/A   Overcast
4:26 AM 59.0 °F 55.4 °F 88% 29.85 in 10.0 mi NNE 5.8 mph - N/A   Overcast
4:56 AM 59.0 °F 55.4 °F 88% 29.86 in 10.0 mi Variable 3.5 mph - N/A   Overcast
5:09 AM 59.0 °F 57.2 °F 94% 29.85 in 10.0 mi NE 5.8 mph - N/A   Overcast
5:29 AM 59.0 °F 57.2 °F 94% 29.85 in 10.0 mi NE 4.6 mph - N/A   Overcast
5:56 AM 60.1 °F 57.0 °F 90% 29.84 in 10.0 mi Calm Calm - 0.00 in Rain Light Rain
6:56 AM 60.1 °F 57.0 °F 90% 29.85 in 10.0 mi ENE 4.6 mph - 0.01 in   Overcast
7:24 AM 60.8 °F 57.2 °F 88% 29.87 in 10.0 mi Calm Calm - N/A   Overcast
7:56 AM 60.1 °F 57.0 °F 90% 29.84 in 10.0 mi NE 5.8 mph - N/A   Overcast
8:56 AM 61.0 °F 57.9 °F 90% 29.86 in 10.0 mi ENE 5.8 mph - N/A   Overcast
9:13 AM 60.8 °F 57.2 °F 88% 29.88 in 10.0 mi East 4.6 mph - N/A   Overcast
9:42 AM 62.6 °F 59.0 °F 88% 29.88 in 10.0 mi Calm Calm - N/A   Overcast
9:56 AM 62.1 °F 59.0 °F 90% 29.87 in 10.0 mi East 3.5 mph - N/A   Overcast
10:56 AM 64.4 °F 59.0 °F 83% 29.87 in 10.0 mi East 6.9 mph - N/A   Overcast
11:56 AM 66.0 °F 59.0 °F 78% 29.84 in 10.0 mi NNE 3.5 mph - N/A   Overcast
12:52 PM 69.8 °F 60.8 °F 73% 29.84 in 10.0 mi Calm Calm - N/A   Overcast
12:56 PM 68.0 °F 60.1 °F 76% 29.82 in 10.0 mi ENE 3.5 mph - N/A   Overcast
1:56 PM 69.8 °F 60.8 °F 73% 29.81 in 10.0 mi Calm Calm - N/A   Overcast
2:56 PM 71.1 °F 61.0 °F 70% 29.78 in 10.0 mi WNW 4.6 mph - N/A   Overcast
3:56 PM 71.6 °F 62.6 °F 73% 29.79 in 10.0 mi Calm Calm - N/A   Overcast
4:56 PM 73.0 °F 63.0 °F 71% 29.76 in 10.0 mi Variable 3.5 mph - N/A   Overcast
5:56 PM 71.1 °F 63.0 °F 75% 29.76 in 10.0 mi SSE 4.6 mph - N/A   Overcast
6:56 PM 69.1 °F 64.0 °F 84% 29.77 in 10.0 mi South 3.5 mph - N/A   Overcast
7:56 PM 68.0 °F 64.0 °F 87% 29.78 in 10.0 mi South 3.5 mph - N/A   Overcast
8:56 PM 68.0 °F 64.0 °F 87% 29.78 in 10.0 mi Calm Calm - N/A   Overcast
9:56 PM 66.9 °F 64.0 °F 90% 29.78 in 10.0 mi SSE 3.5 mph - 0.00 in Rain Light Rain
10:56 PM 66.0 °F 64.0 °F 93% 29.78 in 10.0 mi Calm Calm - 0.00 in   Overcast
11:56 PM 66.0 °F 64.0 °F 93% 29.78 in 10.0 mi SSW 3.5 mph - 0.00 in   Overcast